Prescott Valley, AZ

11:03 PM MST on December 07, 2016 (GMT -0700)
Prescott Valley-Central | | Change Station

Elev 5003 ft 34.61 °N, 112.31 °W | Updated 7 seconds ago

Clear
Clear
33.4 °F
Feels Like 33 °F
N
0.0
Wind Variable Wind from WNW
Gusts 0.0 mph

Today
High -- | Low -- °F
--% Chance of Precip.
Yesterday
High -- | Low -- °F
Precip. -- in
Pressure 30.12 in
Visibility 8.0 miles
Clouds Clear
Windchill 33 °F
Dew Point 31 °F
Humidity 92%
Rainfall 0.00 in
Snow Depth Not available.
7:23 AM 5:18 PM
First Quarter, 60% visible
METAR KPRC 080553Z AUTO 19005KT 8SM CLR M01/M02 A3016 RMK AO2 SLP199 T10061017 10078 21006 51014
Pressure 30.12 in
Visibility 8.0 miles
Clouds Clear
Windchill 33 °F
Dew Point 31 °F
Humidity 92%
Rainfall 0.00 in
Snow Depth Not available.
7:23 AM 5:18 PM
First Quarter, 60% visible
METAR KPRC 080553Z AUTO 19005KT 8SM CLR M01/M02 A3016 RMK AO2 SLP199 T10061017 10078 21006 51014

10-Day Weather Forecast

Almanac

Astronomy

Dec. 07, 2016 Rise Set
Actual Time
Civil Twilight
Nautical Twilight
Astronomical Twilight
Moon
Length of Visible Light
Length of Day
Tomorrow will be .
, % of the Moon is Illuminated

Today's Extremes

State Highs State Lows

Community

WunderPhotos

Upload Photos

1,956,259 photos uploaded!

WunderBlog® & News

Nearby

Air Quality

  Air Quality AQ Index Pollutant
Not available.

Snow Depth

Station Depth Elevation

Earthquake Activity

City Distance Mag. Time & Date
Minimum magnitude displayed is 2.5.

Coastal Water Temperatures

Place Temperature

Stations

Nearby Weather Stations

Station Location Temp. Windchill Dew Point Humidity Wind Precip. Elev Updated Type
                   

Watches & Warnings

There are currently no watches in effect.